H1 CPF 2 NER 2021 2 25 9 056 01 glonass122 H2 1004103 9122 37139 2021 2 25 0 0 0 2021 2 28 23 45 0 900 1 1 0 0 0 1 H9 10 0 59270 0.00000 0 9299781.837 -21936094.134 -9320552.376 10 0 59270 900.00000 0 8958945.106 -20661067.990 -12137706.534 10 0 59270 1800.00000 0 8674548.755 -19035458.768 -14721124.399 10 0 59270 2700.00000 0 8494595.624 -17094079.252 -17020969.103 10 0 59270 3600.00000 0 8460229.993 -14882302.391 -18992785.546 10 0 59270 4500.00000 0 8603842.305 -12454382.240 -20598346.479 10 0 59270 5400.00000 0 8947545.481 -9871419.495 -21806388.175 10 0 59270 6300.00000 0 9502087.223 -7199052.042 -22593222.152 10 0 59270 7200.00000 0 10266245.349 -4504962.603 -22943210.988 10 0 59270 8100.00000 0 11226734.154 -1856303.324 -22849098.097 10 0 59270 9000.00000 0 12358629.313 682858.722 -22312183.286 10 0 59270 9900.00000 0 13626297.671 3053970.781 -21342338.152 10 0 59270 10800.00000 0 14984797.350 5206198.338 -19957857.951 10 0 59270 11700.00000 0 16381693.613 7098311.623 -18185149.314 10 0 59270 12600.00000 0 17759217.699 8700174.608 -16058256.375 10 0 59270 13500.00000 0 19056680.331 9993772.176 -13618231.200 10 0 59270 14400.00000 0 20213039.440 10973729.883 -10912357.951 10 0 59270 15300.00000 0 21169513.542 11647301.792 -7993243.927 10 0 59270 16200.00000 0 21872128.837 12033824.679 -4917794.206 10 0 59270 17100.00000 0 22274089.531 12163660.120 -1746089.879 10 0 59270 18000.00000 0 22337867.474 12076668.670 1459806.891 10 0 59270 18900.00000 0 22036918.669 11820281.440 4637095.508 10 0 59270 19800.00000 0 21356950.080 11447252.732 7723500.039 10 0 59270 20700.00000 0 20296679.805 11013191.960 10658524.419 10 0 59270 21600.00000 0 18868056.115 10573983.290 13384671.637 10 0 59270 22500.00000 0 17095924.929 10183206.476 15848599.514 10 0 59270 23400.00000 0 15017159.913 9889672.180 18002187.400 10 0 59270 24300.00000 0 12679293.164 9735179.576 19803490.715 10 0 59270 25200.00000 0 10138706.266 9752593.612 21217563.411 10 0 59270 26100.00000 0 7458460.511 9964324.497 22217131.935 10 0 59270 27000.00000 0 4705860.054 10381273.645 22783108.352 10 0 59270 27900.00000 0 1949852.430 11002289.331 22904934.260 10 0 59270 28800.00000 0 -741623.144 11814152.784 22580751.154 10 0 59270 29700.00000 0 -3304228.419 12792092.364 21817396.844 10 0 59270 30600.00000 0 -5679652.261 13900800.996 20630231.097 10 0 59270 31500.00000 0 -7817770.979 15095910.910 19042797.072 10 0 59270 32400.00000 0 -9678455.975 16325861.046 17086328.042 10 0 59270 33300.00000 0 -11232957.382 17534076.770 14799111.457 10 0 59270 34200.00000 0 -12464810.554 18661369.378 12225724.733 10 0 59270 35100.00000 0 -13370232.451 19648454.726 9416158.849 10 0 59270 36000.00000 0 -13957995.991 20438486.312 6424847.364 10 0 59270 36900.00000 0 -14248791.635 20979498.390 3309619.617 10 0 59270 37800.00000 0 -14274106.116 21226659.107 130597.641 10 0 59270 38700.00000 0 -14074667.354 21144241.921 -3050943.326 10 0 59270 39600.00000 0 -13698521.594 20707235.348 -6173730.423 10 0 59270 40500.00000 0 -13198823.157 19902525.910 -9177644.882 10 0 59270 41400.00000 0 -12631428.220 18729606.307 -12004850.184 10 0 59270 42300.00000 0 -12052391.586 17200779.856 -14600877.456 10 0 59270 43200.00000 0 -11515468.973 15340852.160 -16915649.813 10 0 59270 44100.00000 0 -11069727.112 13186321.237 -18904428.297 10 0 59270 45000.00000 0 -10757359.725 10784097.233 -20528663.031 10 0 59270 45900.00000 0 -10611799.412 8189801.496 -21756734.661 10 0 59270 46800.00000 0 -10656204.082 5465711.614 -22564572.459 10 0 59270 47700.00000 0 -10902381.885 2678433.602 -22936137.036 10 0 59270 48600.00000 0 -11350201.414 -103606.199 -22863757.446 10 0 59270 49500.00000 0 -11987514.639 -2812748.962 -22348314.383 10 0 59270 50400.00000 0 -12790599.360 -5384666.048 -21399263.453 10 0 59270 51300.00000 0 -13725106.618 -7760791.589 -20034494.991 10 0 59270 52200.00000 0 -14747477.358 -9890524.204 -18280029.685 10 0 59270 53100.00000 0 -15806772.481 -11733105.201 -16169552.422 10 0 59270 54000.00000 0 -16846842.073 -13259093.145 -13743790.089 10 0 59270 54900.00000 0 -17808744.199 -14451370.652 -11049742.561 10 0 59270 55800.00000 0 -18633311.470 -15305638.379 -8139779.886 10 0 59270 56700.00000 0 -19263755.970 -15830372.875 -5070622.151 10 0 59270 57600.00000 0 -19648199.991 -16046247.990 -1902221.949 10 0 59270 58500.00000 0 -19742022.094 -15985043.055 1303427.550 10 0 59270 59400.00000 0 -19509915.146 -15688083.973 4483533.492 10 0 59270 60300.00000 0 -18927565.006 -15204284.427 7575766.030 10 0 59270 61200.00000 0 -17982874.943 -14587872.492 10519514.529 10 0 59270 62100.00000 0 -16676680.917 -13895902.303 13257109.080 10 0 59270 63000.00000 0 -15022925.453 -13185660.081 15734979.928 10 0 59270 63900.00000 0 -13048282.072 -12512078.363 17904729.014 10 0 59270 64800.00000 0 -10791246.585 -11925271.556 19724090.440 10 0 59270 65700.00000 0 -8300735.026 -11468299.914 21157759.763 10 0 59270 66600.00000 0 -5634249.515 -11175258.224 22178075.527 10 0 59270 67500.00000 0 -2855691.613 -11069770.391 22765540.483 10 0 59270 68400.00000 0 -32917.247 -11163952.604 22909173.934 10 0 59270 69300.00000 0 2764862.431 -11457886.816 22606690.665 10 0 59270 70200.00000 0 5469724.618 -11939623.785 21864505.861 10 0 59270 71100.00000 0 8017612.570 -12585712.146 20697569.018 10 0 59270 72000.00000 0 10350741.096 -13362227.634 19129033.241 10 0 59270 72900.00000 0 12419732.026 -14226255.854 17189769.302 10 0 59270 73800.00000 0 14185394.102 -15127763.565 14917736.369 10 0 59270 74700.00000 0 15620077.209 -16011777.937 12357223.715 10 0 59270 75600.00000 0 16708549.124 -16820781.387 9557979.398 10 0 59270 76500.00000 0 17448362.810 -17497221.588 6574243.474 10 0 59270 77400.00000 0 17849703.147 -17986032.385 3463704.467 10 0 59270 78300.00000 0 17934723.129 -18237061.690 286398.561 10 0 59270 79200.00000 0 17736399.873 -18207306.873 -2896428.544 10 0 59270 80100.00000 0 17296959.823 -17862866.410 -6023476.915 10 0 59270 81000.00000 0 16665939.392 -17180528.359 -9034544.746 10 0 59270 81900.00000 0 15897961.519 -16148930.891 -11871658.149 10 0 59270 82800.00000 0 15050319.571 -14769247.360 -14480159.115 10 0 59270 83700.00000 0 14180467.500 -13055367.203 -16809733.307 10 0 59270 84600.00000 0 13343518.777 -11033563.920 -18815360.266 10 0 59270 85500.00000 0 12589856.313 -8741661.741 -20458169.612 10 0 59271 0.00000 0 11962951.338 -6227732.436 -21706188.186 10 0 59271 900.00000 0 11497481.494 -3548372.118 -22534964.570 10 0 59271 1800.00000 0 11217825.694 -766626.138 -22928058.570 10 0 59271 2700.00000 0 11137001.180 2050357.277 -22877385.676 10 0 59271 3600.00000 0 11256087.285 4833850.501 -22383407.925 10 0 59271 4500.00000 0 11564164.165 7516145.844 -21455165.020 10 0 59271 5400.00000 0 12038771.918 10033124.986 -20110142.122 10 0 59271 6300.00000 0 12646874.731 12326692.778 -18373973.388 10 0 59271 7200.00000 0 13346293.115 14346973.729 -16279983.530 10 0 59271 8100.00000 0 14087547.017 16054178.294 -13868572.970 10 0 59271 9000.00000 0 14816034.250 17420058.705 -11186455.651 10 0 59271 9900.00000 0 15474453.183 18428890.513 -8285762.343 10 0 59271 10800.00000 0 16005366.869 19077935.751 -5223025.783 10 0 59271 11700.00000 0 16353798.272 19377365.680 -2058067.376 10 0 59271 12600.00000 0 16469743.769 19349644.435 1147191.622 10 0 59271 13500.00000 0 16310494.558 19028398.846 4329969.180 10 0 59271 14400.00000 0 15842663.415 18456822.566 7427884.674 10 0 59271 15300.00000 0 15043826.722 17685683.698 10380215.994 10 0 59271 16200.00000 0 13903708.642 16771022.958 13129123.315 10 0 59271 17100.00000 0 12424854.540 15771643.319 15620812.111 10 0 59271 18000.00000 0 10622763.701 14746501.252 17806609.504 10 0 59271 18900.00000 0 8525475.363 13752113.672 19643930.624 10 0 59271 19800.00000 0 6172626.351 12840093.374 21097114.696 10 0 59271 20700.00000 0 3614021.754 12054919.301 22138114.114 10 0 59271 21600.00000 0 907780.989 11432036.732 22747023.710 10 0 59271 22500.00000 0 -1881860.557 10996367.134 22912441.494 10 0 59271 23400.00000 0 -4686999.997 10761288.837 22631656.098 10 0 59271 24300.00000 0 -7438661.623 10728128.698 21910660.152 10 0 59271 25200.00000 0 -10069428.864 10886182.608 20763992.447 10 0 59271 26100.00000 0 -12516004.141 11213260.091 19214415.098 10 0 59271 27000.00000 0 -14721591.570 11676726.172 17292434.946 10 0 59271 27900.00000 0 -16638005.992 12234993.273 15035681.034 10 0 59271 28800.00000 0 -18227423.936 12839397.649 12488152.292 10 0 59271 29700.00000 0 -19463707.774 13436379.758 9699351.403 10 0 59271 30600.00000 0 -20333252.278 13969876.197 6723322.294 10 0 59271 31500.00000 0 -20835322.469 14383823.039 3617609.945 10 0 59271 32400.00000 0 -20981872.529 14624666.669 442161.939 10 0 59271 33300.00000 0 -20796856.267 14643778.586 -2741808.347 10 0 59271 34200.00000 0 -20315059.977 14399675.143 -5872976.653 10 0 59271 35100.00000 0 -19580507.325 13859951.406 -8891060.857 10 0 59271 36000.00000 0 -18644502.701 13002850.098 -11737952.344 10 0 59271 36900.00000 0 -17563393.599 11818401.254 -14358806.492 10 0 59271 37800.00000 0 -16396143.508 10309085.373 -16703073.843 10 0 59271 38700.00000 0 -15201814.235 8489991.623 -18725454.542 10 0 59271 39600.00000 0 -14037060.182 6388462.773 -20386759.510 10 0 59271 40500.00000 0 -12953736.805 4043238.702 -21654663.304 10 0 59271 41400.00000 0 -11996721.220 1503130.321 -22504334.877 10 0 59271 42300.00000 0 -11202034.954 -1174725.235 -22918934.019 10 0 59271 43200.00000 0 -10595347.154 -3926960.330 -22889963.077 10 0 59271 44100.00000 0 -10190921.841 -6686340.842 -22417465.449 10 0 59271 45000.00000 0 -9991055.217 -9384304.065 -21510064.595 10 0 59271 45900.00000 0 -9986029.394 -11953568.017 -20184839.784 10 0 59271 46800.00000 0 -10154587.743 -14330705.403 -18467037.586 10 0 59271 47700.00000 0 -10464915.346 -16458575.460 -16389621.167 10 0 59271 48600.00000 0 -10876086.368 -18288511.467 -13992662.846 10 0 59271 49500.00000 0 -11339919.813 -19782170.661 -11322588.783 10 0 59271 50400.00000 0 -11803166.694 -20912966.310 -8431288.466 10 0 59271 51300.00000 0 -12209936.276 -21667018.811 -5375105.155 10 0 59271 52200.00000 0 -12504257.502 -22043582.833 -2213726.859 10 0 59271 53100.00000 0 -12632664.595 -22054929.923 990999.370 10 0 59271 54000.00000 0 -12546693.757 -21725689.962 4176304.676 10 0 59271 54900.00000 0 -12205180.946 -21091678.820 7279760.098 10 0 59271 55800.00000 0 -11576259.031 -20198262.539 10240534.545 10 0 59271 56700.00000 0 -10638965.643 -19098329.294 13000620.803 10 0 59271 57600.00000 0 -9384390.286 -17849957.827 15506002.075 10 0 59271 58500.00000 0 -7816309.956 -16513884.600 17707733.066 10 0 59271 59400.00000 0 -5951285.286 -15150880.400 19562912.147 10 0 59271 60300.00000 0 -3818213.266 -13819150.613 21035524.183 10 0 59271 61200.00000 0 -1457356.608 -12571871.505 22097137.071 10 0 59271 62100.00000 0 1081107.501 -11454967.897 22727439.043 10 0 59271 63000.00000 0 3738956.050 -10505226.026 22914607.770 10 0 59271 63900.00000 0 6452125.499 -9748819.867 22655506.329 10 0 59271 64800.00000 0 9153159.581 -9200310.478 21955705.065 10 0 59271 65700.00000 0 11773796.127 -8862156.998 20829332.009 10 0 59271 66600.00000 0 14247584.636 -8724755.801 19298757.923 10 0 59271 67500.00000 0 16512426.316 -8767001.866 17394125.069 10 0 59271 68400.00000 0 18512932.667 -8957344.656 15152731.396 10 0 59271 69300.00000 0 20202507.145 -9255290.610 12618284.197 10 0 59271 70200.00000 0 21545066.797 -9613286.420 9840039.141 10 0 59271 71100.00000 0 22516336.186 -9978902.279 6871842.023 10 0 59271 72000.00000 0 23104663.681 -10297222.858 3771091.927 10 0 59271 72900.00000 0 23311329.976 -10513345.979 597645.164 10 0 59271 73800.00000 0 23150339.147 -10574885.418 -2587320.103 10 0 59271 74700.00000 0 22647703.326 -10434374.660 -5722458.345 10 0 59271 75600.00000 0 21840252.182 -10051472.952 -8747410.202 10 0 59271 76500.00000 0 20774017.102 -9394883.212 -11603935.368 10 0 59271 77400.00000 0 19502256.668 -8443903.113 -14237005.497 10 0 59271 78300.00000 0 18083204.077 -7189545.280 -16595838.719 10 0 59271 79200.00000 0 16577628.037 -5635179.640 -18634858.247 10 0 59271 80100.00000 0 15046306.159 -3796669.864 -20314558.506 10 0 59271 81000.00000 0 13547513.372 -1701995.832 -21602263.655 10 0 59271 81900.00000 0 12134627.711 609625.610 -22472764.630 10 0 59271 82800.00000 0 10853951.494 3089089.117 -22908822.424 10 0 59271 83700.00000 0 9742837.950 5679167.121 -22901527.082 10 0 59271 84600.00000 0 8828201.519 8316625.189 -22450503.836 10 0 59271 85500.00000 0 8125475.299 10934602.765 -21563959.972 10 0 59272 0.00000 0 7638061.233 13465163.870 -20258568.605 10 0 59272 900.00000 0 7357299.002 15841914.126 -18559187.929 10 0 59272 1800.00000 0 7262957.406 18002576.251 -16498418.549 10 0 59272 2700.00000 0 7324231.748 19891415.974 -14116003.217 10 0 59272 3600.00000 0 7501206.506 21461416.407 -11458078.500 10 0 59272 4500.00000 0 7746724.298 22676106.484 -8576290.425 10 0 59272 5400.00000 0 8008582.348 23510964.121 -5526790.271 10 0 59272 6300.00000 0 8231962.981 23954331.675 -2369129.866 10 0 59272 7200.00000 0 8361993.275 24007802.049 834920.944 10 0 59272 8100.00000 0 8346322.240 23686056.838 4022609.607 10 0 59272 9000.00000 0 8137602.355 23016161.995 7131461.980 10 0 59272 9900.00000 0 7695765.907 22036350.669 10100541.089 10 0 59272 10800.00000 0 6989995.339 20794345.866 12871675.281 10 0 59272 11700.00000 0 6000300.327 19345296.081 15390628.250 10 0 59272 12600.00000 0 4718631.938 17749414.317 17608184.795 10 0 59272 13500.00000 0 3149484.981 16069423.716 19481128.783 10 0 59272 14400.00000 0 1309962.493 14367921.039 20973092.674 10 0 59272 15300.00000 0 -770699.701 12704772.149 22055261.511 10 0 59272 16200.00000 0 -3052126.847 11134651.157 22706918.208 10 0 59272 17100.00000 0 -5484273.659 9704827.518 22915820.992 10 0 59272 18000.00000 0 -8009303.207 8453293.575 22678407.850 10 0 59272 18900.00000 0 -10563795.363 7407309.202 21999826.831 10 0 59272 19800.00000 0 -13081190.799 6582421.534 20893794.709 10 0 59272 20700.00000 0 -15494367.391 5981996.960 19382289.888 10 0 59272 21600.00000 0 -17738241.653 5597280.493 17495088.557 10 0 59272 22500.00000 0 -19752287.825 5407975.463 15269155.629 10 0 59272 23400.00000 0 -21482871.649 5383315.029 12747904.450 10 0 59272 24300.00000 0 -22885304.561 5483576.942 9980341.057 10 0 59272 25200.00000 0 -23925536.199 5661975.431 7020110.302 10 0 59272 26100.00000 0 -24581418.446 5866849.270 3924462.444 10 0 59272 27000.00000 0 -24843492.025 6044053.771 753159.552 10 0 59272 27900.00000 0 -24715266.151 6139456.887 -2432658.399 10 0 59272 28800.00000 0 -24212982.131 6101436.088 -5571627.534 10 0 59272 29700.00000 0 -23364872.453 5883273.147 -8603314.127 10 0 59272 30600.00000 0 -22209946.835 5445348.451 -11469348.947 10 0 59272 31500.00000 0 -20796355.379 4757044.775 -14114522.552 10 0 59272 32400.00000 0 -19179395.586 3798282.067 -16487823.081 10 0 59272 33300.00000 0 -17419243.987 2560619.482 -18543398.949 10 0 59272 34200.00000 0 -15578504.091 1047878.016 -20241429.862 10 0 59272 35100.00000 0 -13719669.733 -723744.007 -21548890.928 10 0 59272 36000.00000 0 -11902606.541 -2726070.319 -22440195.944 10 0 59272 36900.00000 0 -10182154.018 -4919848.071 -22897707.489 10 0 59272 37800.00000 0 -8605946.454 -7256118.120 -22912103.199 10 0 59272 38700.00000 0 -7212542.722 -9678001.993 -22482589.567 10 0 59272 39600.00000 0 -6029943.388 -12122835.695 -21616956.709 10 0 59272 40500.00000 0 -5074558.301 -14524565.595 -20331470.131 10 0 59272 41400.00000 0 -4350670.018 -16816309.751 -18650598.135 10 0 59272 42300.00000 0 -3850418.241 -18932979.635 -16606576.714 10 0 59272 43200.00000 0 -3554308.785 -20813853.387 -14238816.962 10 0 59272 44100.00000 0 -3432228.320 -22404992.112 -11593163.606 10 0 59272 45000.00000 0 -3444924.189 -23661395.869 -8721016.939 10 0 59272 45900.00000 0 -3545887.917 -24548805.928 -5678333.977 10 0 59272 46800.00000 0 -3683562.663 -25045074.058 -2524528.125 10 0 59272 47700.00000 0 -3803779.818 -25141037.654 678710.165 10 0 59272 48600.00000 0 -3852318.883 -24840860.807 3868646.788 10 0 59272 49500.00000 0 -3777478.541 -24161824.724 6982764.525 10 0 59272 50400.00000 0 -3532545.686 -23133575.346 9960022.584 10 0 59272 51300.00000 0 -3078053.339 -21796860.216 12742086.912 10 0 59272 52200.00000 0 -2383727.643 -20201809.461 15274503.650 10 0 59272 53100.00000 0 -1430038.070 -18405836.033 17507789.545 10 0 59272 54000.00000 0 -209282.867 -16471247.007 19398415.636 10 0 59272 54900.00000 0 1273837.378 -14462670.021 20909663.437 10 0 59272 55800.00000 0 3002182.210 -12444406.430 22012336.325 10 0 59272 56700.00000 0 4946670.323 -10477824.919 22685312.799 10 0 59272 57600.00000 0 7067292.311 -8618906.428 22915932.241 10 0 59272 58500.00000 0 9314592.147 -6916043.523 22700207.848 10 0 59272 59400.00000 0 11631552.880 -5408185.172 22042865.407 10 0 59272 60300.00000 0 13955805.451 -4123402.025 20957210.199 10 0 59272 61200.00000 0 16222066.643 -3077928.645 19464827.814 10 0 59272 62100.00000 0 18364703.657 -2275718.387 17595127.674 10 0 59272 63000.00000 0 20320318.585 -1708524.716 15384740.731 10 0 59272 63900.00000 0 22030246.197 -1356500.989 12876785.204 10 0 59272 64800.00000 0 23442863.108 -1189289.254 10120016.050 10 0 59272 65700.00000 0 24515614.999 -1167549.052 7167875.424 10 0 59272 66600.00000 0 25216680.638 -1244859.718 4077462.700 10 0 59272 67500.00000 0 25526206.843 -1369915.122 908443.353 10 0 59272 68400.00000 0 25437066.149 -1488918.610 -2278083.425 10 0 59272 69300.00000 0 24955108.244 -1548078.483 -5420738.183 10 0 59272 70200.00000 0 24098896.652 -1496100.881 -8459015.674 10 0 59272 71100.00000 0 22898942.520 -1286577.449 -11334420.569 10 0 59272 72000.00000 0 21396467.309 -880169.710 -13991565.064 10 0 59272 72900.00000 0 19641744.736 -246500.314 -16379209.862 10 0 59272 73800.00000 0 17692088.846 634327.048 -18451230.933 10 0 59272 74700.00000 0 15609569.190 1770642.506 -20167495.378 10 0 59272 75600.00000 0 13458544.956 3158606.074 -21494631.111 10 0 59272 76500.00000 0 11303117.292 4782112.301 -22406676.378 10 0 59272 77400.00000 0 9204602.928 6613210.699 -22885596.631 10 0 59272 78300.00000 0 7219131.761 8613028.513 -22921658.063 10 0 59272 79200.00000 0 5395466.901 10733161.991 -22513649.022 10 0 59272 80100.00000 0 3773137.563 12917482.840 -21668942.665 10 0 59272 81000.00000 0 2380963.161 15104288.940 -20403396.713 10 0 59272 81900.00000 0 1236031.766 17228713.322 -18741088.868 10 0 59272 82800.00000 0 343177.936 19225293.292 -16713889.509 10 0 59272 83700.00000 0 -305015.593 21030593.580 -14360876.598 10 0 59272 84600.00000 0 -727689.751 22585773.527 -11727601.177 10 0 59272 85500.00000 0 -954674.428 23838989.057 -8865215.589 10 0 59273 0.00000 0 -1024989.345 24747525.961 -5829480.127 10 0 59273 900.00000 0 -984943.456 25279571.026 -2679666.853 10 0 59273 1800.00000 0 -885913.741 25415543.613 522616.101 10 0 59273 2700.00000 0 -781899.971 25148926.181 3714656.177 10 0 59273 3600.00000 0 -726961.689 24486557.833 6833896.204 10 0 59273 4500.00000 0 -772650.314 23448375.085 9819194.656 10 0 59273 5400.00000 0 -965549.461 22066610.841 12612058.025 10 0 59273 6300.00000 0 -1345032.062 20384485.808 15157817.660 10 0 59273 7200.00000 0 -1941333.067 18454449.440 17406724.796 10 0 59273 8100.00000 0 -2774022.234 16336047.265 19314939.923 10 0 59273 9000.00000 0 -3850943.406 14093507.596 20845395.601 10 0 59273 9900.00000 0 -5167665.591 11793152.380 21968515.221 10 0 59273 10800.00000 0 -6707468.410 9500743.730 22662774.193 10 0 59273 11700.00000 0 -8441860.948 7278879.311 22915093.992 10 0 59273 12600.00000 0 -10331609.875 5184546.561 22721063.535 10 0 59273 13500.00000 0 -12328231.102 3266937.481 22084986.383 10 0 59273 14400.00000 0 -14375879.904 1565613.424 21019755.864 10 0 59273 15300.00000 0 -16413558.236 109093.515 19546563.773 10 0 59273 16200.00000 0 -18377545.494 -1086078.465 17694451.283 10 0 59273 17100.00000 0 -20203950.691 -2015754.471 15499713.433 10 0 59273 18000.00000 0 -21831279.857 -2688077.111 13005170.941 10 0 59273 18900.00000 0 -23202912.968 -3122858.216 10259324.969 10 0 59273 19800.00000 0 -24269389.295 -3350471.147 7315412.009 10 0 59273 20700.00000 0 -24990408.622 -3410306.327 4230377.417 10 0 59273 21600.00000 0 -25336467.992 -3348856.867 1063786.860 10 0 59273 22500.00000 0 -25290068.819 -3217515.428 -2123304.488 10 0 59273 23400.00000 0 -24846446.719 -3070174.526 -5269504.807 10 0 59273 24300.00000 0 -24013795.742 -2960729.839 -8314240.462 10 0 59273 25200.00000 0 -22812978.823 -2940589.496 -11198893.056 10 0 59273 26100.00000 0 -21276736.698 -3056291.730 -13867899.278 10 0 59273 27000.00000 0 -19448427.334 -3347328.747 -16269795.022 10 0 59273 27900.00000 0 -17380346.387 -3844266.499 -18358186.121 10 0 59273 28800.00000 0 -15131695.894 -4567238.227 -20092628.958 10 0 59273 29700.00000 0 -12766282.311 -5524875.046 -21439405.644 10 0 59273 30600.00000 0 -10350035.997 -6713719.687 -22372179.686 10 0 59273 31500.00000 0 -7948451.866 -8118150.285 -22872519.612 10 0 59273 32400.00000 0 -5624054.504 -9710820.978 -22930279.769 10 0 59273 33300.00000 0 -3433990.913 -11453605.110 -22543829.389 10 0 59273 34200.00000 0 -1427849.793 -13299006.249 -21720123.187 10 0 59273 35100.00000 0 354202.026 -15191982.651 -20474609.198 10 0 59273 36000.00000 0 1882887.472 -17072113.007 -18830972.269 10 0 59273 36900.00000 0 3140828.308 -18876015.997 -16820714.659 10 0 59273 37800.00000 0 4123050.836 -20539924.315 -14482578.512 10 0 59273 38700.00000 0 4836964.421 -22002305.783 -11861818.404 10 0 59273 39600.00000 0 5301811.204 -23206420.579 -9009335.910 10 0 59273 40500.00000 0 5547608.294 -24102704.866 -5980691.681 10 0 59273 41400.00000 0 5613626.068 -24650877.279 -2835013.985 10 0 59273 42300.00000 0 5546466.947 -24821675.635 366174.087 10 0 59273 43200.00000 0 5397827.391 -24598146.696 3560183.975 10 0 59273 44100.00000 0 5222040.412 -23976430.992 6684420.850 10 0 59273 45000.00000 0 5073506.301 -22966006.831 9677644.550 10 0 59273 45900.00000 0 5004124.609 -21589381.612 12481204.016 10 0 59273 46800.00000 0 5060840.570 -19881243.167 15040217.481 10 0 59273 47700.00000 0 5283413.912 -17887107.907 17304672.079 10 0 59273 48600.00000 0 5702507.916 -15661524.825 19230418.877 10 0 59273 49500.00000 0 6338181.819 -13265913.667 20780042.287 10 0 59273 50400.00000 0 7198851.405 -10766131.329 21923586.190 10 0 59273 51300.00000 0 8280761.472 -8229871.508 22639123.046 10 0 59273 52200.00000 0 9567991.200 -5724008.894 22913156.247 10 0 59273 53100.00000 0 11032990.003 -3312000.485 22740849.971 10 0 59273 54000.00000 0 12637618.701 -1051452.748 22126084.835 10 0 59273 54900.00000 0 14334649.479 1008044.999 21081341.312 10 0 59273 55800.00000 0 16069659.083 2826732.952 19627416.326 10 0 59273 56700.00000 0 17783233.900 4376067.004 17792981.594 10 0 59273 57600.00000 0 19413393.374 5639625.277 15613994.914 10 0 59273 58500.00000 0 20898130.025 6613502.019 13132978.055 10 0 59273 59400.00000 0 22177960.551 7306177.302 10398176.796 10 0 59273 60300.00000 0 23198382.993 7737872.507 7462620.231 10 0 59273 61200.00000 0 23912139.526 7939422.269 4383097.795 10 0 59273 62100.00000 0 24281193.132 7950712.944 1219073.278 10 0 59273 63000.00000 0 24278338.531 7818754.654 -1968444.379 10 0 59273 63900.00000 0 23888382.779 7595468.151 -5118053.285 10 0 59273 64800.00000 0 23108848.545 7335278.758 -8169113.761 10 0 59273 65700.00000 0 21950172.106 7092616.824 -11062886.636 10 0 59273 66600.00000 0 20435388.345 6919427.506 -13743635.298 10 0 59273 67500.00000 0 18599315.237 6862792.128 -16159672.894 10 0 59273 68400.00000 0 16487270.116 6962758.790 -18264336.998 10 0 59273 69300.00000 0 14153368.536 7250471.679 -20016874.982 10 0 59273 70200.00000 0 11658473.146 7746676.791 -21383224.664 10 0 59273 71100.00000 0 9067873.971 8460667.110 -22336676.137 10 0 59273 72000.00000 0 6448792.712 9389712.919 -22858402.122 10 0 59273 72900.00000 0 3867811.151 10519003.810 -22937845.981 10 0 59273 73800.00000 0 1388327.514 11822108.457 -22572958.399 10 0 59273 74700.00000 0 -931855.410 13261937.115 -21770275.865 10 0 59273 75600.00000 0 -3042711.056 14792171.086 -20544836.544 10 0 59273 76500.00000 0 -4903847.792 16359103.555 -18919931.821 10 0 59273 77400.00000 0 -6485966.740 17903818.242 -16926694.802 10 0 59273 78300.00000 0 -7771855.791 19364617.064 -14603530.367 10 0 59273 79200.00000 0 -8756875.690 20679596.125 -11995394.806 10 0 59273 80100.00000 0 -9448915.114 21789261.498 -9152936.786 10 0 59273 81000.00000 0 -9867814.397 22639073.070 -6131514.974 10 0 59273 81900.00000 0 -10044280.607 23181806.447 -2990111.096 10 0 59273 82800.00000 0 -10018339.194 23379629.537 209839.495 10 0 59273 83700.00000 0 -9837388.370 23205802.109 3405675.095 10 0 59273 84600.00000 0 -9553940.456 22645922.502 6534766.103 10 0 59273 85500.00000 0 -9223148.848 21698665.441 9535776.592 99